Location: ??????
(42.0089°N, 44.3281°E)
Time: 18:42:25
(UTC+00:00)

NOSS 8 (H) - Pass Details

Date: 24 October 2021
Orbit: 371 x 1792 km, 63.3° (Epoch: 01 December)

Event Time Altitude Azimuth Distance (km) Brightness Sun altitude
Rises 14:53:00 0° 209° (SSW) 2,718 8.9 -9.1°
Reaches altitude 10° 14:55:26 10° 206° (SSW) 1,667 7.8 -9.6°
Maximum altitude 14:58:57 66° 124° (SE) 458 4.2 -10.2°
Enters shadow 15:01:51 10° 41° (NE) 1,381 6.4 -10.7°
